Location: Blackrock Ranger Station
(36.0936°N, 118.2611°W)
Time: 03:16:49
(UTC-08:00)

STRAND 1 - Visible Passes

Search period start: 07 February 2026 00:00
Search period end: 17 February 2026 00:00
Orbit: 763 x 774 km, 98.4° (Epoch: 7 February)

Date Brightness Start Highest point End Pass type
(mag) Time Alt. Az. Time Alt. Az. Time Alt. Az.
7 Feb ? 03:48:10 10° ESE 03:51:23 17° ENE 03:54:36 10° NNE visible
7 Feb ? 05:25:02 10° S 05:29:58 51° W 05:34:57 10° NNW visible
7 Feb ? 19:18:11 10° NW 19:20:30 13° WNW 19:22:50 10° W visible
8 Feb ? 04:49:01 10° SSE 04:54:05 69° ENE 04:59:10 10° N visible
8 Feb ? 18:40:41 10° N 18:45:01 29° WNW 18:49:19 10° SW visible
9 Feb ? 04:13:58 10° SE 04:18:22 31° ENE 04:22:48 10° N visible
9 Feb ? 05:53:04 10° SSW 05:57:21 27° W 06:01:40 10° NW visible
9 Feb ? 18:04:16 10° N 18:09:19 65° WNW 18:14:20 10° SSW visible
10 Feb ? 03:40:15 10° E 03:42:51 14° ENE 03:45:28 10° NNE visible
10 Feb ? 05:16:17 10° S 05:21:19 63° W 05:26:24 10° NNW visible
10 Feb ? 19:08:58 10° NNW 19:11:59 16° WNW 19:14:59 10° W visible
11 Feb ? 04:40:30 10° SSE 04:45:28 57° ENE 04:50:29 10° N visible
11 Feb ? 18:31:52 10° N 18:36:26 34° WNW 18:40:59 10° SW visible
12 Feb ? 04:05:40 10° ESE 04:09:48 26° ENE 04:13:57 10° NNE visible
12 Feb ? 05:44:07 10° SSW 05:48:40 33° W 05:53:15 10° NNW visible
12 Feb ? 17:55:35 10° N 18:00:42 79° WNW 18:05:45 10° SSW visible
13 Feb ? 03:32:38 10° E 03:34:19 12° ENE 03:36:01 10° NE visible
13 Feb ? 05:07:35 10° S 05:12:40 77° WSW 05:17:48 10° NNW visible
13 Feb ? 18:59:55 10° NNW 19:03:26 19° WNW 19:06:57 10° WSW visible
14 Feb ? 04:32:00 10° SE 04:36:52 46° ENE 04:41:45 10° N visible
14 Feb ? 06:12:45 10° SW 06:16:06 18° W 06:19:29 10° NW visible
14 Feb ? 18:23:04 10° N 18:27:50 41° WNW 18:32:35 10° SW visible
15 Feb ? 03:57:27 10° ESE 04:01:14 21° ENE 04:05:02 10° NNE visible
15 Feb ? 05:35:12 10° SSW 05:39:58 40° W 05:44:47 10° NNW visible
15 Feb ? 19:29:45 10° NW 19:30:19 10° WNW 19:30:54 10° WNW visible
16 Feb ? 04:58:55 10° SSE 05:04:01 88° E 05:09:10 10° NNW visible
16 Feb ? 18:50:57 10° NNW 18:54:53 23° WNW 18:58:47 10° WSW visible
